Wind_Speed
17 15 15 15 15 15 14 13 13 13 13 11 10 10 11 11 10 10 10 8 8 8 6 6 7 7 6 5 5 5 4 3 3 3 3 4 4 3 5 5 3 3
18 15 14 14 15 14 13 12 11 12 12 11 10 10 10 10 10 11 10 8 8 7 6 6 6 6 6 6 5 6 6 6 5 4 4 5 5 5 5 5 4 4
18 17 15 15 16 15 13 12 11 11 11 11 10 10 10 10 10 10 9 8 9 8 6 6 6 6 8 7 6 6 6 5 5 4 4 6 6 6 5 5 6 5
18 18 17 16 15 14 13 14 14 12 12 11 10 10 11 10 9 10 10 9 10 9 7 7 7 7 8 8 7 7 6 6 5 5 5 6 6 7 7 6 6 6
18 17 16 15 14 13 13 14 15 13 12 11 10 11 12 11 11 11 11 10 10 10 8 8 8 8 9 9 8 7 7 7 6 6 7 7 6 7 6 6 7 6
19 17 16 16 15 15 15 15 14 13 12 11 11 12 13 12 12 12 12 11 11 10 9 9 10 10 9 10 10 9 8 7 7 7 8 8 7 7 7 8 8 7
20 18 17 17 17 17 16 16 15 15 14 13 13 13 13 13 12 12 12 12 11 11 10 9 10 11 9 9 10 9 8 8 7 7 9 9 8 8 8 8 8 7
21 20 19 18 18 18 17 15 15 15 14 14 15 15 14 13 12 12 12 12 12 11 12 11 10 11 11 10 11 10 9 8 8 8 9 9 8 8 8 8 8 7
21 19 19 18 16 17 17 15 14 14 14 14 15 15 14 13 13 13 12 13 12 12 13 12 10 10 11 11 11 10 9 8 9 9 9 9 9 9 9 9 9 9
21 20 20 19 17 16 16 15 13 13 14 13 13 13 14 15 14 13 12 13 13 12 13 12 11 10 11 11 10 10 9 9 10 10 9 10 10 10 10 9 10 11
20 20 20 20 19 18 17 16 15 14 14 14 13 12 13 15 15 13 12 13 13 12 12 11 10 10 10 11 10 10 11 10 10 10 10 10 10 10 10 10 10 11
21 20 20 19 19 18 17 16 16 14 15 16 16 15 13 14 15 16 14 14 13 13 13 12 12 11 10 10 10 11 11 11 10 10 11 11 11 10 10 10 11 12
20 19 18 18 18 17 16 15 15 12 9 10 13 16 16 15 14 15 16 15 15 15 15 14 13 12 12 12 11 11 11 11 11 11 12 11 11 11 11 12 12 11
21 20 20 18 17 16 15 15 16 14 9 4 4 8 11 13 12 12 14 17 18 16 15 14 13 12 12 12 12 12 12 11 11 11 11 11 11 12 11 9 9 9
12 12 13 14 16 16 16 16 17 17 14 9 6 4 4 6 7 6 8 14 18 17 15 13 13 14 13 12 13 13 13 13 12 10 10 10 10 10 8 6 7 9
3 1 1 1 5 8 10 14 16 16 15 13 12 9 5 4 5 4 4 6 9 11 12 12 13 13 13 12 13 15 15 15 13 11 9 9 8 8 7 5 6 8
7 9 8 6 5 6 7 8 10 13 15 14 12 11 10 8 6 4 4 3 3 6 9 12 12 12 12 11 12 15 17 16 14 12 9 7 7 6 4 2 4 7
6 11 14 12 9 9 10 9 8 10 12 12 11 9 10 10 9 7 7 5 3 3 5 9 11 11 12 11 10 13 17 17 14 12 8 5 4 4 3 2 3 4
8 10 12 9 6 6 9 10 10 11 11 10 10 9 10 11 10 9 9 8 6 5 6 7 9 9 10 10 8 9 12 14 13 11 7 5 4 4 5 5 4 4
8 9 9 10 9 8 9 9 11 11 11 11 11 12 12 13 12 12 12 10 7 7 8 9 10 9 9 9 8 7 8 10 11 9 8 7 7 7 7 7 7 6
6 8 8 10 11 12 12 12 12 12 13 13 13 13 13 13 14 16 16 13 10 9 10 11 11 12 11 10 9 7 5 6 7 8 8 8 8 8 8 9 9 9
4 5 6 7 8 10 10 10 11 12 13 14 14 14 14 15 16 17 18 18 18 18 15 13 12 13 13 12 11 10 7 6 6 7 7 7 7 6 7 7 8 7
5 5 5 4 4 4 5 7 8 9 11 12 13 13 14 16 16 15 15 15 18 19 17 15 14 12 11 12 12 11 9 7 7 6 5 5 5 4 4 5 5 4
10 9 7 5 4 3 2 3 5 7 7 7 8 9 10 12 12 13 13 12 14 15 15 15 14 11 9 9 9 10 9 8 7 6 5 4 3 3 3 4 3 3
14 14 12 11 9 6 4 2 1 1 2 2 2 3 4 6 8 10 11 11 13 15 15 14 13 11 8 7 6 7 8 9 8 6 6 6 4 3 3 3 2 3
14 14 14 13 11 8 6 4 4 5 4 3 3 4 5 3 1 1 3 5 10 14 15 12 9 9 7 6 6 7 8 8 8 6 6 6 5 4 3 3 3 3
Wind_Direction
181 178 174 173 176 176 177 179 188 192 188 188 190 190 193 193 191 198 201 200 199 202 203 201 206 208 200 191 192 204 208 198 204 230 248 259 262 279 291 284 268 253
187 184 180 180 175 172 178 183 190 192 189 192 194 195 195 192 197 203 200 203 204 206 213 208 203 198 188 197 218 217 219 225 218 222 261 270 265 274 278 267 260 258
191 189 185 184 175 171 181 190 195 193 190 194 194 199 202 191 195 203 199 200 201 204 216 213 203 197 192 204 221 216 220 236 222 221 256 258 261 268 263 280 287 256
192 194 191 186 179 177 183 191 197 196 194 197 195 198 199 188 190 200 196 193 194 203 217 214 205 202 200 205 215 217 223 240 240 242 254 244 252 260 250 275 290 258
193 197 197 192 188 188 189 192 196 195 193 199 198 195 194 193 198 203 202 198 196 204 213 210 205 209 212 209 214 224 223 234 248 252 254 248 248 255 251 276 285 259
196 200 200 195 193 193 196 195 193 190 194 201 199 195 194 198 205 206 206 206 203 207 209 206 205 213 221 215 214 225 223 231 248 248 251 254 252 253 256 276 281 255
198 201 198 195 196 199 202 201 196 193 199 206 205 204 203 206 209 206 206 207 205 210 213 208 210 216 224 218 214 223 224 230 245 246 248 252 252 254 255 265 273 256
196 200 200 200 202 203 202 202 202 200 205 213 212 209 209 210 209 204 208 210 208 214 217 216 219 219 220 218 219 227 226 228 240 248 253 252 246 252 257 261 263 256
194 198 201 203 204 201 198 200 206 207 212 220 215 208 208 210 209 208 215 216 211 216 222 222 224 220 217 220 226 231 229 228 238 247 257 255 246 248 255 259 259 254
195 198 201 203 204 203 199 202 209 210 209 212 211 210 212 212 210 210 216 218 215 221 225 224 221 218 218 222 229 238 240 240 242 245 251 255 250 250 254 258 259 257
195 198 200 203 205 205 204 206 210 209 205 205 206 212 217 216 212 208 213 217 218 220 221 221 222 221 220 223 231 239 243 247 247 245 250 253 252 251 252 258 262 261
193 197 200 205 209 209 207 208 208 207 209 209 206 208 216 220 215 212 217 219 218 219 220 223 229 231 229 230 236 240 241 242 241 243 249 253 254 256 256 259 261 260
194 198 201 208 213 214 216 216 213 212 214 211 205 206 214 221 223 223 224 219 214 219 222 224 231 238 238 237 238 241 244 245 243 242 244 247 253 257 256 259 265 267
199 204 206 210 214 218 221 220 221 228 236 237 211 206 209 217 229 234 225 215 214 221 226 224 229 236 237 236 239 241 243 246 249 248 245 247 254 256 259 275 294 297
194 199 205 212 215 218 218 215 221 233 242 248 250 239 197 196 217 224 212 209 213 221 227 222 220 227 232 234 237 240 240 240 247 253 251 253 259 263 279 303 305 295
223 183 110 190 202 203 207 212 219 228 239 247 246 244 235 207 203 186 176 198 205 211 218 219 217 222 227 231 237 240 238 236 241 246 246 251 265 278 293 299 274 281
234 221 214 209 186 168 169 189 208 219 229 237 239 242 245 243 238 228 220 225 203 191 201 211 219 223 224 235 251 246 233 229 233 235 237 251 275 284 288 288 268 275
222 215 213 207 196 193 193 192 202 213 220 229 238 245 251 251 250 244 236 235 229 192 185 199 215 225 227 239 259 247 228 222 224 227 231 242 263 270 271 301 312 292
216 211 207 194 176 194 207 207 214 223 227 235 244 251 257 259 257 248 237 232 227 209 183 184 199 213 222 231 239 229 216 211 209 207 204 204 214 243 270 294 317 318
214 211 204 193 187 197 210 218 227 234 240 246 248 249 251 252 252 250 243 232 229 227 209 198 200 206 214 220 219 213 207 206 205 200 201 212 228 249 269 283 292 296
202 208 207 207 212 214 217 225 232 236 240 243 244 242 240 237 239 244 241 231 233 247 238 221 214 209 208 210 212 214 211 206 206 206 209 222 237 252 267 276 281 285
178 190 194 204 217 217 218 225 231 236 240 242 244 244 238 234 232 238 244 240 237 241 241 233 224 216 214 215 216 217 213 205 205 208 214 229 241 252 263 268 274 277
134 150 156 168 187 198 210 225 235 242 246 248 251 251 247 245 244 244 250 242 228 228 232 230 226 221 219 217 213 209 204 199 204 205 208 224 233 243 254 255 259 257
104 107 108 117 130 140 171 219 238 243 246 250 255 257 257 259 258 254 254 239 213 208 215 217 217 217 217 215 210 203 194 191 199 197 186 195 211 218 233 241 237 229
103 99 96 98 103 110 125 131 145 207 225 238 254 276 286 283 273 264 262 249 220 206 206 208 206 204 206 209 202 192 186 185 193 190 176 181 202 217 232 248 249 235
104 102 100 98 95 90 87 85 84 83 86 104 104 82 72 63 36 241 198 174 178 186 186 184 184 182 181 183 177 170 172 176 181 180 178 187 196 195 198 225 245 246
Height
850 852 853 854 855 856 857 858 859 860 860 861 861 863 863 864 865 866 866 867 867 868 868 869 869 870 870 871 871 872 872 872 872 872 872 872 872 871 871 871 871 871
849 851 852 854 855 856 856 857 859 859 860 860 861 862 863 864 864 865 866 867 867 868 868 868 869 869 870 870 871 871 871 871 872 872 872 872 872 872 872 871 871 871
848 850 851 853 854 854 855 856 858 858 859 860 861 862 863 863 864 865 866 866 867 867 868 868 869 869 870 870 870 871 871 871 871 871 872 872 872 872 871 871 871 871
847 849 850 852 853 853 854 856 857 857 858 859 860 861 862 863 864 864 865 866 866 867 868 868 869 869 870 870 870 870 870 871 871 871 871 871 871 871 871 871 871 870
846 848 849 851 852 853 854 855 856 856 857 858 859 860 862 863 863 864 864 865 866 866 867 868 868 869 869 870 870 870 870 870 870 870 871 871 871 871 870 870 870 870
845 847 848 849 851 852 853 854 855 856 856 857 858 860 861 862 862 863 863 864 865 866 866 866 867 868 869 869 869 869 870 870 870 870 870 870 870 870 870 870 870 869
844 845 847 848 849 851 852 853 854 855 856 857 857 859 860 861 861 862 862 863 864 865 865 865 866 867 867 868 868 869 869 869 869 869 870 870 870 870 869 869 869 869
843 844 845 847 848 849 850 851 853 854 855 856 856 858 858 859 860 861 861 862 863 863 864 865 865 866 866 867 867 868 868 868 868 868 869 869 869 869 869 869 869 868
841 843 844 846 846 848 849 850 851 853 854 855 855 856 857 858 859 859 860 860 861 862 863 863 864 865 865 866 866 867 867 867 867 867 867 867 867 868 868 868 868 868
840 841 843 844 845 846 848 849 850 851 852 853 854 855 856 856 857 858 859 859 860 861 861 862 863 863 864 865 865 866 866 866 866 866 866 866 866 866 866 867 866 866
838 840 841 843 844 845 846 848 849 850 851 852 853 854 855 855 856 857 858 858 859 860 860 861 862 862 863 864 864 864 864 865 865 865 865 865 865 865 865 865 865 865
836 838 840 842 843 844 845 846 847 848 849 850 851 852 853 853 854 855 855 856 857 858 859 860 860 861 862 862 863 863 863 864 863 863 864 863 864 864 864 864 864 864
834 837 839 841 842 843 844 845 845 847 847 848 849 849 850 851 852 852 853 854 855 855 856 858 858 859 860 861 861 862 862 862 862 862 862 862 862 862 862 862 862 862
834 837 839 840 842 842 843 844 844 845 845 846 847 847 848 849 849 850 851 851 852 853 854 855 856 857 858 859 859 860 860 861 860 861 861 861 861 861 861 861 862 862
836 838 839 841 842 842 843 843 844 844 844 845 845 846 846 847 847 848 849 849 850 851 852 853 854 855 856 857 857 858 858 859 859 859 859 859 860 860 859 860 862 862
838 838 839 840 841 842 842 843 843 843 843 843 844 844 845 845 846 846 847 848 849 850 851 852 852 853 853 854 855 855 856 857 857 858 858 858 859 859 858 858 860 861
839 838 838 839 839 840 841 842 843 843 842 843 843 843 844 844 845 845 845 846 847 848 849 850 851 851 851 852 852 853 853 854 855 856 856 857 857 857 857 858 859 859
839 838 837 837 838 838 839 839 841 842 842 842 842 842 843 843 843 843 843 844 845 846 847 848 849 849 849 850 850 850 851 852 853 854 854 855 855 855 856 857 858 858
837 836 836 836 837 837 837 838 839 840 840 841 841 841 841 841 842 842 842 842 843 843 844 845 846 847 847 848 849 849 850 850 851 852 852 852 853 853 854 855 856 856
833 833 834 835 835 836 837 837 837 838 839 839 839 838 839 839 840 841 840 841 841 842 843 843 844 845 846 846 847 848 849 849 850 850 850 850 851 851 852 853 853 854
831 831 832 832 833 834 834 835 835 836 837 837 836 837 837 837 838 839 838 839 840 841 842 842 843 843 844 845 845 846 847 848 848 848 848 848 849 850 850 851 851 851
829 829 830 831 831 832 832 833 833 834 834 835 835 835 836 835 835 836 836 837 839 840 841 841 842 842 843 843 843 844 846 847 847 846 846 847 848 848 849 849 849 849
829 829 829 830 830 831 831 832 832 833 833 834 834 834 834 834 834 835 836 837 838 840 840 841 842 842 842 842 842 842 843 845 846 845 845 845 846 847 847 848 848 848
829 829 829 830 830 831 831 832 832 833 833 833 833 833 833 833 833 834 835 836 837 838 839 839 840 840 841 841 841 841 841 842 844 844 844 844 845 845 846 847 848 848
829 829 830 830 831 831 832 832 832 832 832 832 832 832 832 832 832 832 833 834 834 835 836 836 837 837 839 840 839 840 840 840 842 843 843 843 844 844 845 846 847 847
830 830 830 830 831 832 832 833 833 833 832 832 832 832 831 831 830 830 831 832 832 833 833 834 835 836 837 838 838 839 839 838 840 841 842 842 843 843 844 845 846 847